TimeEST,TemperatureF,Dew PointF,Humidity,Sea Level PressureIn,VisibilityMPH,Wind Direction,Wind SpeedMPH,Gust SpeedMPH,PrecipitationIn,Events,Conditions,WindDirDegrees,DateUTC
12:51 AM,15.1,-2.9,45,30.41,10.0,WNW,16.1,23.0,N/A,,Clear,290,2013-01-25 05:51:00
1:51 AM,14.0,-2.9,47,30.43,10.0,WNW,12.7,20.7,N/A,,Clear,300,2013-01-25 06:51:00
2:51 AM,14.0,-2.0,49,30.43,10.0,WNW,16.1,-,N/A,,Clear,290,2013-01-25 07:51:00
3:51 AM,12.9,-0.9,54,30.43,10.0,WNW,12.7,23.0,N/A,,Clear,290,2013-01-25 08:51:00
4:51 AM,12.9,-0.9,54,30.43,10.0,West,5.8,-,N/A,,Scattered Clouds,260,2013-01-25 09:51:00
5:51 AM,12.2,-0.4,57,30.42,10.0,West,13.8,-,N/A,,Mostly Cloudy,280,2013-01-25 10:51:00
6:51 AM,12.9,1.0,59,30.42,10.0,West,6.9,-,N/A,,Mostly Cloudy,280,2013-01-25 11:51:00
7:51 AM,14.0,1.9,59,30.40,10.0,Variable,4.6,-,N/A,,Overcast,0,2013-01-25 12:51:00
8:51 AM,16.0,3.0,57,30.42,10.0,WNW,6.9,-,N/A,,Overcast,300,2013-01-25 13:51:00
9:51 AM,18.0,3.0,52,30.43,10.0,West,6.9,-,N/A,,Overcast,280,2013-01-25 14:51:00
10:51 AM,19.9,1.9,46,30.40,10.0,West,5.8,-,N/A,,Overcast,280,2013-01-25 15:51:00
11:51 AM,21.0,1.9,44,30.33,10.0,North,4.6,-,N/A,,Overcast,10,2013-01-25 16:51:00
12:51 PM,21.9,1.9,42,30.30,10.0,West,4.6,-,N/A,,Overcast,260,2013-01-25 17:51:00
1:51 PM,23.0,1.0,39,30.26,10.0,WSW,4.6,-,N/A,,Overcast,240,2013-01-25 18:51:00
2:51 PM,24.1,3.0,40,30.23,10.0,SW,6.9,-,N/A,,Overcast,220,2013-01-25 19:51:00
3:51 PM,24.1,3.0,40,30.22,10.0,SW,8.1,-,N/A,,Overcast,220,2013-01-25 20:51:00
4:49 PM,23.0,6.8,50,30.20,1.5,SSW,8.1,-,0.00,Snow,Light Snow,210,2013-01-25 21:49:00
4:51 PM,21.9,8.1,55,30.20,1.5,South,8.1,-,0.00,Snow,Light Snow,190,2013-01-25 21:51:00
5:07 PM,21.2,12.2,68,30.19,1.5,WSW,11.5,-,0.00,Snow,Light Snow,240,2013-01-25 22:07:00
5:23 PM,21.2,14.0,74,30.19,1.5,SSW,5.8,-,0.00,Snow,Light Snow,210,2013-01-25 22:23:00
5:47 PM,19.4,15.8,86,30.17,1.2,South,5.8,-,0.00,Snow,Light Snow,170,2013-01-25 22:47:00
5:51 PM,19.9,16.0,85,30.16,1.2,South,4.6,-,0.01,Snow,Light Snow,170,2013-01-25 22:51:00
6:28 PM,19.4,15.8,86,30.15,1.5,South,5.8,-,0.01,Snow,Light Snow,190,2013-01-25 23:28:00
6:51 PM,19.0,16.0,88,30.14,1.5,SSW,3.5,-,0.01,Snow,Light Snow,210,2013-01-25 23:51:00
7:11 PM,19.4,15.8,86,30.15,1.2,WSW,8.1,-,0.01,Snow,Light Snow,240,2013-01-26 00:11:00
7:44 PM,19.4,15.8,86,30.14,1.5,WSW,9.2,-,0.02,Snow,Light Snow,250,2013-01-26 00:44:00
7:51 PM,19.0,15.1,85,30.13,2.0,WSW,8.1,-,0.02,Snow,Light Snow,240,2013-01-26 00:51:00
8:23 PM,19.4,15.8,86,30.13,3.0,WSW,8.1,-,0.00,Snow,Light Snow,250,2013-01-26 01:23:00
8:39 PM,19.4,15.8,86,30.12,7.0,WSW,5.8,-,0.00,Snow,Light Snow,250,2013-01-26 01:39:00
8:51 PM,19.9,15.1,81,30.12,7.0,WSW,6.9,-,0.00,Snow,Light Snow,250,2013-01-26 01:51:00
9:19 PM,17.6,14.0,86,30.10,8.0,WSW,6.9,-,0.00,,Mostly Cloudy,240,2013-01-26 02:19:00
9:51 PM,18.0,14.0,84,30.09,9.0,West,4.6,-,0.00,,Scattered Clouds,260,2013-01-26 02:51:00
10:51 PM,18.0,12.9,81,30.08,9.0,West,6.9,-,N/A,,Mostly Cloudy,280,2013-01-26 03:51:00
11:51 PM,17.1,12.9,84,30.08,10.0,WSW,4.6,-,N/A,,Mostly Cloudy,250,2013-01-26 04:51:00